Alliance, NE

3:57 AM MDT on August 22, 2017 (GMT -0600)
Alliance Municipal

Weather History for KAIA - April, 2013

Change the Weather History Date:

Thursday, April 25, 2013

  Actual Average Record
Temperature  
Mean Temperature 47 °F 48 °F  
Max Temperature 71 °F 63 °F 87 °F (1962)
Min Temperature 23 °F 32 °F 11 °F (2002)
Degree Days  
Heating Degree Days 18 18  
Month to date heating degree days 734 520  
Since 1 July heating degree days 6766 6806  
Cooling Degree Days 0 0  
Month to date cooling degree days 0 0  
Year to date cooling degree days 0 0  
Moisture  
Dew Point 18 °F    
Average Humidity 48    
Maximum Humidity 88    
Minimum Humidity 8    
Precipitation  
Precipitation 0.00 in 0.05 in 1.55 in (1948)
Month to date precipitation 0.14 1.19  
Year to date precipitation 0.71 2.60  
Sea Level Pressure  
Sea Level Pressure 29.98 in    
Wind  
Wind Speed 10 mph (SW)    
Max Wind Speed 24 mph    
Max Gust Speed 31 mph    
Visibility 10 miles    
Events      
T = Trace of Precipitation, MM = Missing Value Source: NWS Daily Summary

Daily Weather History Graph

Daily Weather History Graph

Search for Another Location

Airport or City:

Trip Planner

Search our weather history database for the weather conditions in past years. The results will help you decide how hot, cold, wet, or windy it might be!

Date:

Astronomy

Apr. 25, 2013 Rise Set
Actual Time 5:55 AM MDT 7:43 PM MDT
Civil Twilight 5:25 AM MDT 8:13 PM MDT
Nautical Twilight 4:48 AM MDT 8:50 PM MDT
Astronomical Twilight 4:09 AM MDT 9:29 PM MDT
Moon 8:00 PM MDT (4/25) 5:39 AM MDT (4/25)
Length of Visible Light 14h 48m
Length of Day
13h 48m
Full, 100% of the Moon is Illuminated
Apr 25
Full
Apr 25
Full
May 2
Last Quarter
May 9
New
May 17
First Quarter

Hourly Weather History & Observations

Time (MDT) Temp. Windchill Dew Point Humidity Pressure Visibility Wind Dir Wind Speed Gust Speed Precip Events Conditions
12:53 AM 23.0 °F 12.4 °F 19.0 °F 85% 30.19 in 10.0 mi South 10.4 mph - N/A   Clear
1:53 AM 25.0 °F 18.1 °F 21.0 °F 85% 30.17 in 10.0 mi SSE 5.8 mph - N/A   Clear
2:53 AM 25.0 °F 15.5 °F 21.0 °F 85% 30.15 in 10.0 mi SSW 9.2 mph - N/A   Clear
3:53 AM 26.1 °F 19.4 °F 21.0 °F 81% 30.14 in 10.0 mi South 5.8 mph - N/A   Clear
4:53 AM 23.0 °F 13.1 °F 19.0 °F 85% 30.12 in 10.0 mi SSE 9.2 mph - N/A   Clear
5:53 AM 25.0 °F 20.7 °F 19.0 °F 78% 30.10 in 10.0 mi SE 3.5 mph - N/A   Clear
6:53 AM 30.0 °F 25.2 °F 25.0 °F 82% 30.08 in 10.0 mi SSE 4.6 mph - N/A   Clear
7:53 AM 43.0 °F 37.7 °F 28.0 °F 56% 30.05 in 10.0 mi SW 9.2 mph - N/A   Clear
8:53 AM 51.1 °F - 24.1 °F 35% 30.03 in 10.0 mi SW 12.7 mph - N/A   Clear
9:53 AM 57.0 °F - 23.0 °F 27% 30.02 in 10.0 mi SW 18.4 mph - N/A   Clear
10:53 AM 61.0 °F - 18.0 °F 19% 29.99 in 10.0 mi WSW 19.6 mph 25.3 mph N/A   Clear
11:53 AM 64.0 °F - 17.1 °F 16% 29.98 in 10.0 mi SW 13.8 mph 21.9 mph N/A   Clear
12:53 PM 66.0 °F - 10.0 °F 11% 29.93 in 10.0 mi WSW 13.8 mph 23.0 mph N/A   Clear
1:53 PM 68.0 °F - 14.0 °F 12% 29.90 in 10.0 mi SSW 16.1 mph 29.9 mph N/A   Clear
2:53 PM 69.1 °F - 10.9 °F 11% 29.86 in 10.0 mi West 8.1 mph 27.6 mph N/A   Clear
3:53 PM 70.0 °F - 8.1 °F 9% 29.83 in 10.0 mi WSW 24.2 mph 28.8 mph N/A   Clear
4:53 PM 71.1 °F - 8.1 °F 9% 29.82 in 10.0 mi West 15.0 mph 25.3 mph N/A   Clear
5:53 PM 68.0 °F - 5.0 °F 8% 29.82 in 10.0 mi WSW 15.0 mph - N/A   Clear
6:53 PM 66.0 °F - 12.0 °F 12% 29.82 in 10.0 mi West 11.5 mph - N/A   Clear
7:53 PM 55.9 °F - 16.0 °F 21% 29.84 in 10.0 mi WNW 6.9 mph - N/A   Clear
8:53 PM 46.9 °F - 21.0 °F 36% 29.88 in 10.0 mi NW 3.5 mph - N/A   Clear
9:53 PM 41.0 °F - 21.0 °F 45% 29.89 in 10.0 mi Calm Calm - N/A   Clear
10:53 PM 42.1 °F 36.1 °F 23.0 °F 47% 29.88 in 10.0 mi WNW 10.4 mph - N/A   Clear
11:53 PM 34.0 °F - 23.0 °F 64% 29.93 in 10.0 mi Calm Calm - N/A   Clear